Home   Weather   Pocatello   Past weeks

Flag for USA Past Weather in Pocatello, Idaho, USA — Yesterday and Last 2 Weeks

Now
33 °F

Overcast.


Feels Like: 22 °F
Forecast: 30 / 38 °F
Wind: 17 mph from South

Location: Pocatello Regional Airport

Current Time: Dec 4, 2016 at 3:16:20 am

Latest Report: Dec 4, 2016 at 1:53 am


Visibility: 10 mi

Pressure: 30.18 "Hg (25.47 "Hg at 1357m altitude)

Humidity: 66%

Dew Point: 23 °F

Location of PocatelloLocation

Past Weather in Pocatello — Graph

°F

Pocatello Temperature Yesterday

Maximum temperature yesterday: 36 °F (at 9:53 pm)
Minimum temperature yesterday: 25 °F (at 1:53 am)
Average temperature yesterday: 32 °F

High & Low Weather Summary for the Past Weeks

 TemperatureHumidityPressure
High60 °F (Nov 20, 1:53 pm)100% (Nov 28, 8:53 am)30.48 "Hg (Nov 28, 8:53 am)
Low19 °F (Nov 25, 7:53 am)21% (Nov 20, 1:53 pm)29.45 "Hg (Nov 27, 1:53 am)
Average34 °F73%30.07 "Hg
* Reported Nov 19 1:53 am — Dec 4 1:53 am, Pocatello, Weather by CustomWeather, © 2016

Note: Actual official high and low records may vary slightly from our data, if they occured in-between our weather recording intervals... More about our weather records

Advertising

Pocatello Weather History for the Previous 24 Hours

Scroll right to see more
 ConditionsComfort  
Time TempWeatherWind HumidityBarometerVisibility
1:53 am
Sun, Dec 4
33 °FOvercast.17 mph66%30.18 "Hg10 mi
12:53 am34 °FOvercast.15 mph67%30.19 "Hg10 mi
11:53 pm
Sat, Dec 3
35 °FOvercast.16 mph64%30.21 "Hg10 mi
10:53 pm35 °FOvercast.14 mph67%30.22 "Hg10 mi
9:53 pm36 °FMostly cloudy.14 mph64%30.24 "Hg10 mi
8:53 pm34 °FOvercast.14 mph73%30.25 "Hg10 mi
7:53 pm33 °FPassing clouds.15 mph72%30.26 "Hg10 mi
6:53 pm35 °FOvercast.14 mph72%30.27 "Hg10 mi
5:53 pm34 °FBroken clouds.14 mph73%30.26 "Hg10 mi
4:53 pm34 °FPartly sunny.13 mph70%30.27 "Hg10 mi
3:53 pm33 °FBroken clouds.12 mph70%30.27 "Hg10 mi
2:53 pm33 °FPartly sunny.12 mph70%30.26 "Hg10 mi
1:53 pm33 °FPartly sunny.13 mph66%30.28 "Hg10 mi
12:53 pm32 °FOvercast.15 mph66%30.27 "Hg10 mi
11:53 am32 °FOvercast.13 mph64%30.31 "Hg10 mi
10:53 am32 °FOvercast.14 mph61%30.34 "Hg10 mi
9:53 am31 °FOvercast.9 mph64%30.32 "Hg10 mi
8:53 am31 °FOvercast.14 mph59%30.29 "Hg10 mi
7:53 am30 °FOvercast.10 mph61%30.30 "Hg10 mi
6:53 am29 °FOvercast.8 mph66%30.29 "Hg10 mi
5:53 am30 °FOvercast.13 mph61%30.29 "Hg10 mi
4:53 am28 °FOvercast.8 mph69%30.27 "Hg10 mi
3:53 am29 °FOvercast.14 mph61%30.27 "Hg10 mi
Weather by CustomWeather, © 2016

See weather overviewHow to use our weather pages